Location: Little Arabia
(41.4620°N, 81.7687°W)
Time: 20:56:35
(UTC+00:00)

ERS-2 - Pass Details

Date: 29 October 2020
Orbit: 493 x 497 km, 98.6° (Epoch: 03 December)

Event Time Altitude Azimuth Distance (km) Brightness Sun altitude
Rises 23:30:50 0° 4° (N) 2,585 5.6 -12.8°
Reaches altitude 10° 23:33:01 10° 356° (N) 1,698 4.8 -13.2°
Maximum altitude 23:36:22 36° 289° (WNW) 803 3.8 -13.9°
Drops below altitude 10° 23:39:43 10° 222° (SW) 1,687 5.5 -14.5°
Sets 23:41:52 0° 214° (SSW) 2,565 6.3 -14.9°
